Regional Weather Roundup
Issued by NWS Cleveland, OH

Home | Current Version | Previous Version | Graphics & Text | Print | Product List | Glossary On
Versions: 1 2 3 4 5 6 7 8 9 10 11 12 13 14 15 16 17 18 19 20 21 22 23 24 25 26 27 28 29 30 31 32 33 34 35 36 37 38 39 40 41 42 43 44 45 46 47 48 49 50
655
ASUS41 KCLE 261312
RWRCLE
OHIO REGIONAL WEATHER ROUNDUP
NATIONAL WEATHER SERVICE WILMINGTON, OH
900 AM EDT TUE JUL 26 2016

NOTE: "FAIR" INDICATES FEW OR NO CLOUDS BELOW 12,000 FEET WITH NO
SIGNIFICANT WEATHER AND/OR OBSTRUCTIONS TO VISIBILITY.

OHZ001>008-015>018-024>027-034-035-043-044-261400-
   NORTHWEST OHIO

CITY           SKY/WX    TMP DP  RH WIND       PRES   REMARKS
DEFIANCE       FAIR      74  64  71 N6        30.08R
FINDLAY        FAIR      77  63  61 NE10      30.06S
TOLEDO EXPRESS FAIR      73  66  78 CALM      30.07R
TOLEDO EXEC    FAIR      75  68  78 E3        30.07S
LIMA           FAIR      72  67  84 N5        30.07S
$$

OHZ009>014-019>023-028>033-038-089-261400-
   NORTHEAST OHIO

CITY           SKY/WX    TMP DP  RH WIND       PRES   REMARKS
CLE-HOPKINS    FAIR      79  63  57 N13       30.08R
CLE-LAKEFRONT  FAIR      77  65  66 NE9       30.05R
CUY CO. ARPT   MOSUNNY   77  64  65 NE12      30.07S
LORAIN-ELYRIA  FAIR      75  66  73 E6        30.07S
ASHTABULA      FAIR      72  63  73 N7        30.08R
AKRON-CANTON   PTSUNNY   74  63  68 NE12      30.07R
WOOSTER        FAIR      73  66  78 NE10      30.08R
MANSFIELD      FAIR      74  68  81 N7        30.08S
YOUNGSTOWN     PTSUNNY   73  63  70 N7        30.07R
$$

OHZ042-051>053-060>062-070>072-077>081-261400-
  SOUTHWEST OHIO

CITY           SKY/WX    TMP DP  RH WIND       PRES   REMARKS
CINC-COVINGTON PTSUNNY   81  70  69 E6        30.05S
CINC-LUNKEN    FAIR      80  73  79 NE3       30.04S
HAMILTON       FAIR      80  68  66 VRB3      30.05S
DAYTON         PTSUNNY   76  65  68 NE5       30.07S
WRIGHT-PAT AFB FAIR      76  67  72 N3        30.05S
DAYTON GENERAL FAIR      78  66  66 E6        30.05S
WILMINGTON     PTSUNNY   75  70  84 NE5       30.05S
$$

OHZ036-037-039>041-045>050-054>059-063>069-073>076-082>088-261400-
  CENTRAL AND SOUTHEAST OHIO

CITY           SKY/WX    TMP DP  RH WIND       PRES   REMARKS
COLUMBUS       FAIR      78  68  71 NE5       30.04S
OSU AIRPORT    FAIR      78  69  73 NE5       30.05S
BOLTON FIELD   MOSUNNY   77  70  78 NE3       30.05F
RICKENBACK AFB FAIR      77  68  73 NE6       30.04S
NEWARK         FAIR      78  69  73 CALM      30.05S
MARION         FAIR      75  67  76 NE9       30.07S
LANCASTER      FAIR      78  71  79 NE3       30.05S
ZANESVILLE     FAIR      81  68  64 N5        30.05S
NEW PHILLY     FAIR      79  67  66 N6        30.06R
$$




USA.gov is the U.S. government's official web portal to all federal, state and local government web resources and services.